Regional Weather Roundup
Issued by NWS Sioux Falls, SD

Home | Current Version | Previous Version | Graphics & Text | Print | Product List | Glossary On
Versions: 1 2 3 4 5 6 7 8 9 10 11 12 13 14 15 16 17 18 19 20 21 22 23 24 25 26 27 28 29 30 31 32 33 34 35 36 37 38 39 40 41 42 43 44 45 46 47 48 49 50
000
ASUS43 KFSD 011702
RWRFSD

WEATHER ROUNDUP FOR SE SOUTH DAKOTA/SW MINNESOTA/NW IOWA
NATIONAL WEATHER SERVICE SIOUX FALLS SD
1100 AM CST SUN MAR 01 2015

NOTE: "FAIR" INDICATES FEW OR NO CLOUDS BELOW 12,000 FEET WITH NO
SIGNIFICANT WEATHER AND OR OBSTRUCTIONS TO VISIBILITY.


SDZ038>040-050-052>070-011800-
SOUTHEAST SOUTH DAKOTA

CITY           SKY/WX    TMP DP  RH WIND       PRES   REMARKS
CHAMBERLAIN    NOT AVBL
HURON          SUNNY     27  14  58 W14       30.31R WCI  16
MADISON        FAIR      21  14  73 W17       30.28S WCI   7
MITCHELL       SUNNY     30  11  45 W17G24    30.33S WCI  18
SIOUX FALLS    PTSUNNY   23  12  62 W10       30.32S WCI  12
WINNER         FAIR      32   6  33 NW16G24   30.31S WCI  21
YANKTON        MOSUNNY   27  14  59 W14       30.37F WCI  15
$$

MNZ071-072-080-081-089-090-097-098-011800-
SOUTHWEST MINNESOTA

CITY           SKY/WX    TMP DP  RH WIND       PRES   REMARKS
FAIRMONT       PTSUNNY   21   7  53 W14       30.30S WCI   8
JACKSON        MOSUNNY   23  10  58 W15       30.30R WCI  10
LUVERNE        MOSUNNY   23  14  68 W14       30.32S WCI  11
MARSHALL       SUNNY     21   9  58 W20       30.30F WCI   6
MONTEVIDEO     SUNNY     25  12  58 W10G17    30.28F WCI  15
PIPESTONE      SUNNY     19  12  73 W13       30.28S WCI   7
REDWOOD FALLS  SUNNY     20   9  62 W13       30.30F WCI   7
TRACY          MOSUNNY   23  11  61 W10G16    30.29F WCI  12
WINDOM         MOSUNNY   21  10  63 W16       30.29S WCI   7
WORTHINGTON    MOSUNNY   30   9  40 W16       30.31S WCI  19
$$

IAZ001>003-012>014-020>022-031-032-NEZ013-014-SDZ071-011800-
NORTHWEST IOWA

CITY           SKY/WX    TMP DP  RH WIND       PRES   REMARKS
DENISON        MOSUNNY   25  14  63 N5        30.35S WCI  19
ESTHERVILLE    PTSUNNY   22  10  60 NW15      30.31R WCI   9
SIOUX CITY     CLOUDY    27  15  61 NW8       30.38S WCI  19
SPENCER        PTSUNNY   24  12  60 W12       30.33R WCI  13
$$

ABBREVIATIONS USED IN REMARKS
   TC - TEMPERATURE IN CELSIUS
  WCI - WIND CHILL INDEX
   HX - HEAT INDEX
  VSB - VISIBILITY



USA.gov is the U.S. government's official web portal to all federal, state and local government web resources and services.